"America/Chicago Time","Lifetime Energy (kWh)","Power (W)","AC Volts RMS (V) ","AC Amps RMS (mA)","Grid Frequency (Hz)","Inverter Temperature (C)"
"09/02/12 10:30:56","224.0757","165.2","216.84","760","60.03","32"
"09/02/12 10:35:56","224.0887","168.9","217.83","771","60.03","33"
"09/02/12 10:40:56","224.102","169.6","216.62","781","60.0","33"
"09/02/12 10:45:56","224.1153","173.3","216.67","790","60.03","33"
"09/02/12 10:50:57","224.129","175.8","217.01","796","60.03","34"
"09/02/12 10:55:56","224.1426","177.6","217.16","810","60.03","34"
"09/02/12 11:00:56","224.1565","179.0","216.33","817","60.0","35"
"09/02/12 11:05:56","224.1705","181.9","216.32","827","60.03","35"
"09/02/12 11:10:56","224.1847","183.6","216.86","834","60.03","35"
"09/02/12 11:15:57","224.199","182.3","217.29","830","60.03","36"
"09/02/12 11:20:57","224.2131","172.9","216.23","795","60.03","36"
"09/02/12 11:25:55","224.2268","180.7","216.81","816","60.03","36"
"09/02/12 11:30:56","224.2412","188.1","216.87","845","60.03","36"
"09/02/12 11:35:56","224.2558","183.1","217.07","831","60.03","36"
"09/02/12 11:40:57","224.2704","190.5","217.25","864","60.03","36"
"09/02/12 11:45:57","224.2847","181.8","217.1","826","60.03","36"
"09/02/12 11:50:57","224.2987","179.9","217.16","815","60.03","36"
"09/02/12 11:55:55","224.3117","169.0","217.11","776","60.03","36"
"09/02/12 12:00:55","224.3253","167.7","217.06","766","60.03","36"
"09/02/12 12:05:57","224.3375","153.3","216.49","698","60.03","36"
"09/02/12 12:10:56","224.3495","162.5","217.03","745","60.0","36"
"09/02/12 12:15:56","224.3627","188.9","216.51","860","60.0","36"
"09/02/12 12:20:56","224.3768","176.9","216.6","809","60.03","36"
"09/02/12 12:25:55","224.3909","180.3","217.4","821","60.0","36"
"09/02/12 12:30:57","224.4057","182.6","217.47","827","60.03","37"
"09/02/12 12:35:56","224.4202","183.1","217.46","834","60.0","37"
"09/02/12 12:40:56","224.4318","108.3","215.43","515","60.0","36"
"09/02/12 12:45:56","224.4421","181.3","216.48","826","60.0","36"
"09/02/12 12:50:56","224.456","174.7","216.21","803","60.03","36"
"09/02/12 12:55:56","224.4701","186.9","216.8","851","60.0","37"
"09/02/12 13:00:55","224.4846","187.4","216.54","861","60.03","37"
"09/02/12 13:05:56","224.4991","190.4","216.15","870","60.03","38"
"09/02/12 13:10:55","224.5136","184.2","216.34","841","60.0","38"
"09/02/12 13:15:57","224.5285","192.2","216.32","872","60.0","38"
"09/02/12 13:20:57","224.5433","188.2","216.5","859","60.0","38"
"09/02/12 13:25:56","224.5578","186.3","216.76","850","60.03","39"
"09/02/12 13:30:56","224.5723","186.2","217.02","847","60.03","39"
"09/02/12 13:35:55","224.5866","182.1","217.23","833","60.03","39"
"09/02/12 13:40:56","224.6005","173.2","216.78","784","60.0","39"
"09/02/12 13:45:57","224.6134","147.4","216.07","685","60.0","38"
"09/02/12 13:50:56","224.6256","177.3","217.16","808","60.03","38"
"09/02/12 13:55:55","224.639","175.1","217.29","798","60.0","38"
"09/02/12 14:00:56","224.653","180.2","216.73","824","60.03","38"
"09/02/12 14:05:55","224.6669","175.8","216.81","804","60.03","38"
"09/02/12 14:10:57","224.6804","170.1","217.09","778","60.07","38"
"09/02/12 14:15:56","224.6931","160.2","216.72","733","60.0","38"
"09/02/12 14:20:57","224.706","169.8","217.13","778","60.03","38"
"09/02/12 14:25:57","224.7191","169.8","217.27","776","60.03","38"
"09/02/12 14:30:56","224.7321","163.2","216.35","746","60.0","38"
"09/02/12 14:35:57","224.7446","158.0","216.72","725","60.0","38"
"09/02/12 14:40:57","224.7564","154.4","216.89","708","60.0","38"
"09/02/12 14:45:56","224.7689","157.8","215.95","727","60.0","38"
"09/02/12 14:50:56","224.7807","131.3","214.74","614","60.0","38"
"09/02/12 14:55:57","224.7916","158.6","215.67","733","60.0","38"
"09/02/12 15:00:57","224.8038","154.4","215.6","717","60.07","38"
"09/02/12 15:05:55","224.8157","149.1","216.1","688","60.07","38"
"09/02/12 15:10:57","224.8273","148.7","215.57","691","60.03","38"
"09/02/12 15:15:55","224.8388","146.5","215.92","680","60.03","37"
"09/02/12 15:20:56","224.8502","142.8","215.59","666","60.0","37"
"09/02/12 15:25:55","224.8612","141.6","216.07","657","60.0","37"
"09/02/12 15:30:56","224.8721","137.1","215.75","638","60.0","37"
"09/02/12 15:35:55","224.8825","134.1","216.77","622","60.0","36"
"09/02/12 15:40:56","224.8928","130.4","216.23","604","60.03","36"
"09/02/12 15:45:56","224.9029","128.2","215.57","601","60.03","36"
"09/02/12 15:50:55","224.9128","124.2","215.31","585","60.0","35"
"09/02/12 15:55:56","224.9223","118.6","215.66","560","60.03","35"
"09/02/12 16:00:57","224.9309","96.7","215.48","469","60.0","35"
"09/02/12 16:05:55","224.9387","99.0","214.52","478","60.03","35"
"09/02/12 16:10:57","224.9469","105.7","214.97","504","60.0","34"
"09/02/12 16:15:56","224.9549","96.8","214.98","470","60.03","34"
"09/02/12 16:20:56","224.9613","69.1","214.56","347","60.0","33"
"09/02/12 16:25:57","224.9643","34.8","214.09","275","60.03","33"
"09/02/12 16:30:57","224.9663","30.7","214.0","143","60.0","32"
"09/02/12 16:35:55","224.969","42.1","214.38","146","60.0","32"
"09/02/12 16:40:56","224.9716","37.0","214.43","97","60.03","31"
"09/02/12 16:45:55","224.9742","29.2","214.81","119","60.03","30"
"09/02/12 16:50:56","224.9768","29.5","214.96","87","60.03","30"
"09/02/12 16:55:55","224.9797","53.2","214.04","322","60.03","30"
"09/02/12 17:00:56","224.9837","44.9","214.77","422","60.03","30"
"09/02/12 17:05:56","224.9903","84.7","215.08","413","60.03","30"
"09/02/12 17:10:57","224.9967","77.9","214.8","385","60.0","30"
"09/02/12 17:15:57","225.0023","68.8","214.56","348","60.03","30"
"09/02/12 17:20:57","225.007","54.1","214.31","228","60.03","30"
"09/02/12 17:25:56","225.0108","53.0","214.51","291","60.0","30"
"09/02/12 17:30:56","225.0145","40.0","213.3","227","60.03","30"
"09/02/12 17:35:55","225.0178","34.9","213.44","179","60.07","30"
"09/02/12 17:40:55","225.0207","39.9","213.85","260","60.03","30"
"09/02/12 17:45:55","225.0232","35.5","213.9","271","60.03","29"
"09/02/12 17:50:57","225.0255","31.5","213.86","238","60.03","29"
"09/02/12 17:55:56","225.0274","13.1","213.82","25","60.0","29"
"09/02/12 18:00:56","225.0291","27.7","212.79","70","60.03","28"
"09/02/12 18:05:55","225.0303","14.5","214.57","13","60.03","28"
"09/02/12 18:10:56","225.0313","0.0","213.81","0","60.0","28"
"09/02/12 18:15:56","225.0319","0.0","213.77","0","60.03","27"
"09/02/12 18:20:57","225.0325","6.5","213.8","240","60.03","27"
"09/02/12 18:25:57","225.0329","13.6","213.83","79","60.03","27"
"09/02/12 18:30:57","225.0333","0.0","213.87","0","60.03","27"
"09/02/12 18:35:57","225.0337","0.0","214.1","0","60.07","26"
"09/02/12 18:40:56","225.0342","14.9","212.61","3","60.03","26"
"09/02/12 18:45:56","225.0346","4.4","212.1","0","60.03","26"
"09/02/12 18:50:56","225.0352","7.5","213.22","0","60.03","26"
"09/02/12 18:55:56","225.0356","0.0","212.9","0","60.03","26"
"09/02/12 19:00:56","225.0359","0.0","213.79","0","60.0","25"
"09/03/12 07:28:19","225.0363","0.0","213.67","0","60.03","20"
"09/03/12 07:33:20","225.0366","14.0","214.68","0","60.03","21"
"09/03/12 07:43:19","225.0371","7.0","213.82","0","60.03","21"
"09/03/12 07:48:20","225.0376","8.4","213.42","0","60.0","22"
"09/03/12 07:53:20","225.0383","14.1","214.47","0","60.03","22"
"09/03/12 07:58:19","225.0393","18.3","214.29","90","60.0","22"
"09/03/12 08:03:20","225.0403","7.6","213.77","114","60.0","22"
"09/03/12 08:08:19","225.041","11.5","213.09","3","60.0","22"
"09/03/12 08:13:19","225.0422","32.5","214.37","86","60.03","22"
"09/03/12 08:18:19","225.0444","19.9","213.89","18","60.03","23"
"09/03/12 08:23:19","225.0463","32.0","214.34","204","60.0","23"
"09/03/12 08:28:19","225.0489","41.7","213.75","247","60.0","23"
"09/03/12 08:33:19","225.0526","48.2","214.01","180","60.0","24"
"09/03/12 08:38:19","225.0554","39.0","213.17","82","60.03","24"
"09/03/12 08:43:18","225.0593","82.0","214.51","403","60.03","25"
"09/03/12 08:48:19","225.0654","101.9","214.38","492","60.03","26"
"09/03/12 08:53:19","225.0722","44.9","213.78","340","60.03","26"
"09/03/12 08:58:19","225.0756","76.0","214.23","380","60.0","27"
"09/03/12 09:03:19","225.0806","79.4","214.94","391","60.03","27"
"09/03/12 09:08:18","225.0848","65.8","214.14","347","60.0","27"
"09/03/12 09:13:20","225.0878","31.6","213.3","115","60.03","28"
"09/03/12 09:18:20","225.0906","42.5","213.3","383","59.96","27"
"09/03/12 09:23:19","225.0937","39.2","212.98","149","60.0","27"
"09/03/12 09:28:20","225.0964","38.3","213.77","389","60.0","28"
"09/03/12 09:33:20","225.1003","46.7","213.45","138","60.03","28"
"09/03/12 09:38:20","225.1035","54.2","214.67","103","60.0","28"
"09/03/12 09:43:19","225.1074","48.3","213.82","295","60.0","28"
"09/03/12 09:48:19","225.1111","50.5","213.03","380","60.03","28"
"09/03/12 09:53:19","225.1142","37.9","212.83","186","60.0","29"
"09/03/12 09:58:19","225.1167","27.3","213.18","165","60.03","29"
"09/03/12 10:03:20","225.1193","36.0","213.65","108","60.0","29"
"09/03/12 10:08:20","225.1215","34.4","213.53","192","60.0","29"
"09/03/12 10:13:20","225.1235","23.4","213.12","239","60.0","28"
"09/03/12 10:18:20","225.1255","30.5","213.88","251","60.0","28"
"09/03/12 10:23:18","225.1278","32.4","213.99","117","60.03","28"
"09/03/12 10:28:20","225.1308","36.3","214.23","84","60.03","28"
"09/03/12 10:33:20","225.1337","30.2","213.75","253","60.0","29"
"09/03/12 10:38:20","225.1366","35.7","213.74","194","60.03","29"
"09/03/12 10:43:19","225.1398","51.6","213.71","335","60.0","29"
"09/03/12 10:48:19","225.1437","44.5","213.73","293","60.03","29"
"09/03/12 10:53:20","225.1476","56.1","215.45","185","60.03","30"
"09/03/12 10:58:20","225.1517","70.9","215.79","177","60.07","30"
"09/03/12 11:03:19","225.1592","119.1","217.1","556","60.03","31"
"09/03/12 11:08:20","225.171","160.3","216.87","737","60.03","32"
"09/03/12 11:13:19","225.1817","120.0","215.99","565","60.03","32"
"09/03/12 11:18:20","225.1897","70.9","214.85","355","60.0","32"
"09/03/12 11:23:20","225.1938","54.5","215.28","368","60.03","32"
"09/03/12 11:28:20","225.1972","31.5","214.26","228","60.03","32"
"09/03/12 11:33:20","225.2005","56.8","214.6","124","60.03","32"
"09/03/12 11:38:19","225.2044","64.7","215.32","259","60.0","32"
"09/03/12 11:43:19","225.2082","63.1","215.52","323","60.0","31"
"09/03/12 11:48:20","225.2136","69.1","214.88","348","60.0","31"
"09/03/12 11:53:20","225.2194","67.9","215.2","340","60.03","31"
"09/03/12 11:58:19","225.2234","49.5","214.67","336","60.0","32"
"09/03/12 12:03:20","225.2272","60.0","214.48","326","60.03","32"
"09/03/12 12:08:19","225.2311","55.2","214.76","109","60.03","32"
"09/03/12 12:13:19","225.2348","54.7","214.03","330","60.0","32"
"09/03/12 12:18:19","225.2417","119.9","215.61","567","60.03","32"
"09/03/12 12:23:19","225.2509","88.7","214.69","434","60.03","32"
"09/03/12 12:28:19","225.2573","110.6","214.53","530","60.0","32"
"09/03/12 12:33:20","225.2625","70.8","214.55","352","60.0","32"
"09/03/12 12:38:19","225.2692","195.1","217.68","874","60.03","33"
"09/03/12 12:43:20","225.2835","174.6","217.01","794","60.03","34"
"09/03/12 12:48:20","225.295","195.4","217.49","886","60.03","35"
"09/03/12 12:53:20","225.3074","69.3","214.53","344","60.03","35"
"09/03/12 12:58:19","225.3185","62.9","213.77","324","60.03","36"
"09/03/12 13:03:20","225.328","195.9","216.82","890","60.03","36"
"09/03/12 13:08:20","225.342","195.1","217.1","882","60.03","37"
"09/03/12 13:13:20","225.3555","194.3","216.66","888","60.0","38"
"09/03/12 13:18:19","225.3669","158.5","215.98","737","60.03","38"
"09/03/12 13:23:19","225.382","195.1","216.42","885","60.03","39"
"09/03/12 13:28:20","225.3972","195.1","215.87","884","60.03","40"
"09/03/12 13:33:19","225.4123","188.1","215.82","856","60.03","40"
"09/03/12 13:38:19","225.4266","163.8","215.82","756","60.0","40"
"09/03/12 13:43:19","225.4412","178.1","216.85","816","60.0","41"
"09/03/12 13:48:19","225.4561","194.5","216.97","882","60.0","42"
"09/03/12 13:53:19","225.4711","187.8","216.77","846","60.0","42"
"09/03/12 13:58:20","225.4862","192.0","217.37","873","60.03","42"
"09/03/12 14:03:20","225.5011","187.3","217.2","855","60.03","42"
"09/03/12 14:08:19","225.5155","184.7","217.16","833","60.03","43"
"09/03/12 14:13:21","225.5299","183.1","217.14","832","60.03","43"
"09/03/12 14:18:20","225.5441","183.7","216.24","838","60.0","43"
"09/03/12 14:23:20","225.5578","135.3","216.01","635","60.0","43"
"09/03/12 14:28:20","225.5666","102.6","216.33","492","60.03","42"
"09/03/12 14:33:19","225.5747","95.9","214.78","461","60.0","41"
"09/03/12 14:38:20","225.5839","142.8","215.65","667","60.03","41"
"09/03/12 14:43:20","225.5917","76.1","213.72","379","60.03","40"
"09/03/12 14:48:19","225.5978","89.2","213.96","437","60.03","39"
"09/03/12 14:53:19","225.6038","41.7","213.6","241","60.03","38"
"09/03/12 14:58:19","225.6077","62.2","213.7","266","60.03","38"
"09/03/12 15:08:19","225.6158","105.8","215.02","508","60.0","37"
"09/03/12 15:13:20","225.6242","54.1","213.91","106","60.03","36"
"09/03/12 15:18:19","225.6293","151.4","215.77","704","60.03","36"
"09/03/12 15:23:19","225.641","161.8","215.4","743","60.03","37"
"09/03/12 15:28:20","225.6529","146.1","215.37","679","60.03","37"
"09/03/12 15:33:20","225.6627","144.3","214.79","677","60.03","37"
"09/03/12 15:38:20","225.6733","134.2","214.3","632","60.0","37"
"09/03/12 15:43:20","225.6839","133.7","214.17","632","60.03","38"
"09/03/12 15:48:19","225.6941","128.4","214.95","608","60.03","38"
"09/03/12 15:53:20","225.7039","123.7","214.31","581","60.03","38"
"09/03/12 15:58:19","225.7134","120.7","213.75","573","60.0","38"
"09/03/12 16:03:20","225.7228","117.5","213.25","560","60.03","38"
"09/03/12 16:08:19","225.7317","113.8","213.34","545","60.0","38"
"09/03/12 16:13:19","225.7404","109.4","213.38","527","60.0","38"
"09/03/12 16:18:19","225.7488","106.2","212.98","513","60.0","38"
"09/03/12 16:23:19","225.7569","102.1","212.42","492","60.0","38"
"09/03/12 16:28:19","225.7646","98.0","212.81","474","60.03","38"
"09/03/12 16:33:19","225.7721","93.0","212.59","458","60.03","37"
"09/03/12 16:38:20","225.7792","88.8","212.68","436","60.03","37"
"09/03/12 16:43:19","225.7859","84.3","213.89","414","60.0","37"
"09/03/12 16:48:19","225.7922","80.4","213.13","401","60.03","37"
"09/03/12 16:53:19","225.7983","75.9","213.36","379","60.03","36"
"09/03/12 16:58:19","225.804","71.4","213.78","360","60.03","36"
"09/03/12 17:03:19","225.8094","67.3","213.28","343","60.0","36"
"09/03/12 17:08:20","225.8145","62.8","214.39","321","60.03","36"
"09/03/12 17:13:20","225.8186","51.0","213.53","364","60.03","35"
"09/03/12 17:18:20","225.8225","66.3","213.55","284","60.0","35"
"09/03/12 17:23:20","225.8264","56.7","213.39","90","60.0","35"
"09/03/12 17:28:20","225.83","50.2","212.6","314","60.03","35"
"09/03/12 17:33:19","225.8333","44.0","212.86","217","60.0","34"
"09/03/12 17:38:19","225.8363","31.3","213.34","111","60.03","34"
"09/03/12 17:43:20","225.839","28.9","213.24","84","60.03","34"
"09/03/12 17:48:20","225.8413","28.6","212.74","259","60.03","33"
"09/03/12 17:53:21","225.8433","33.2","212.73","124","60.03","33"
"09/03/12 17:58:19","225.8451","28.3","213.06","248","60.03","33"
"09/03/12 18:03:20","225.8466","17.1","212.87","7","60.0","32"
"09/03/12 18:08:19","225.8478","14.2","212.6","123","60.0","32"
"09/03/12 18:13:21","225.8487","16.4","212.52","27","60.03","32"
"09/03/12 18:18:19","225.8494","0.0","212.59","2","60.03","32"
"09/03/12 18:23:19","225.85","0.0","212.96","0","60.03","31"
"09/03/12 18:28:19","225.8505","0.0","212.21","0","60.03","31"
"09/03/12 18:33:19","225.8508","0.0","212.83","0","60.03","31"
"09/03/12 18:38:19","225.8511","0.0","212.72","0","60.03","30"
"09/03/12 18:43:19","225.8514","0.0","212.64","0","60.0","30"
"09/03/12 18:48:19","225.8516","0.0","212.42","0","60.0","29"
"09/04/12 06:48:20","225.8528","0.0","213.47","0","60.0","18"
"09/04/12 06:53:20","225.8533","11.8","213.59","2","60.0","18"
"09/04/12 06:58:20","225.854","12.6","214.2","27","60.07","19"
"09/04/12 07:03:19","225.8549","16.8","213.47","6","60.03","19"
"09/04/12 07:08:20","225.8559","14.3","214.08","12","60.03","19"
"09/04/12 07:13:21","225.8573","13.6","213.92","214","60.03","19"
"09/04/12 07:18:20","225.859","17.5","213.87","278","60.03","20"
"09/04/12 07:23:19","225.861","31.0","214.3","36","60.03","20"
"09/04/12 07:28:20","225.8632","36.2","214.34","275","60.0","20"
"09/04/12 07:33:20","225.8659","37.4","214.04","88","60.03","21"
"09/04/12 07:38:21","225.8688","43.6","213.97","343","60.03","22"
"09/04/12 07:43:21","225.872","37.5","214.42","113","60.03","22"
"09/04/12 07:48:20","225.8755","38.6","214.53","220","60.03","23"
"09/04/12 07:53:20","225.8794","48.3","212.62","393","60.0","23"
"09/04/12 07:58:21","225.8833","54.1","214.36","342","60.03","24"
"09/04/12 08:03:21","225.8872","37.8","214.0","302","60.03","24"
"09/04/12 08:08:20","225.8911","46.8","214.37","393","60.03","25"
"09/04/12 08:13:19","225.895","54.1","215.38","381","60.03","25"
"09/04/12 08:18:19","225.8989","60.5","214.68","258","60.03","26"
"09/04/12 08:23:19","225.9031","53.2","213.86","253","60.03","26"
"09/04/12 08:28:20","225.9076","58.7","214.87","95","60.03","27"
"09/04/12 08:33:21","225.9143","89.4","214.54","438","60.03","27"
"09/04/12 08:38:20","225.9214","93.7","214.95","454","60.03","28"
"09/04/12 08:43:19","225.9289","97.7","215.74","471","60.0","28"
"09/04/12 08:48:20","225.9367","101.6","215.36","493","60.0","29"
"09/04/12 08:53:21","225.9448","106.2","215.64","508","60.07","29"
"09/04/12 08:58:19","225.9532","109.9","214.56","526","60.03","30"
"09/04/12 09:03:20","225.9619","113.8","216.48","541","60.03","31"
"09/04/12 09:08:20","225.9709","117.3","216.32","555","60.03","32"
"09/04/12 09:13:20","225.9802","121.2","215.76","569","60.03","32"
"09/04/12 09:18:21","225.9898","124.9","215.68","584","60.03","32"
"09/04/12 09:23:20","225.9997","127.6","215.7","605","60.0","33"
"09/04/12 09:28:21","226.0097","130.6","214.75","613","60.03","34"
"09/04/12 09:33:19","226.02","134.1","215.77","625","60.0","35"
"09/04/12 09:38:19","226.0305","136.3","215.56","637","60.03","36"
"09/04/12 09:43:20","226.0413","139.6","215.43","651","60.0","36"
"09/04/12 09:48:21","226.0522","141.6","214.71","662","60.0","37"
"09/04/12 09:53:19","226.0633","144.2","215.64","669","60.07","38"
"09/04/12 09:58:20","226.0746","147.4","214.79","683","60.0","39"
"09/04/12 10:03:20","226.0863","150.8","215.62","698","60.03","39"
"09/04/12 10:08:20","226.0981","153.9","214.54","716","60.0","39"
"09/04/12 10:13:20","226.1103","157.3","216.78","723","60.0","39"
"09/04/12 10:18:20","226.1226","160.4","216.68","738","60.03","39"
"09/04/12 10:23:21","226.1353","162.6","216.1","750","60.0","39"
"09/04/12 10:28:20","226.1479","164.8","216.34","764","60.0","39"
"09/04/12 10:33:20","226.161","168.0","216.52","767","60.0","39"
"09/04/12 10:38:21","226.1741","169.4","215.78","779","60.03","39"
"09/04/12 10:43:20","226.1873","170.6","215.51","783","60.03","40"
"09/04/12 10:48:19","226.2006","172.9","215.56","792","60.0","40"
"09/04/12 10:53:19","226.2142","174.5","217.07","796","60.0","41"
"09/04/12 10:58:20","226.2278","176.3","216.73","798","60.03","41"
"09/04/12 11:03:19","226.2416","177.9","217.78","806","60.0","42"
"09/04/12 11:08:20","226.2555","180.3","217.6","817","60.0","42"
"09/04/12 11:13:20","226.2696","181.4","217.61","826","60.03","42"
"09/04/12 11:18:20","226.2838","182.9","217.7","828","60.03","43"
"09/04/12 11:23:20","226.2981","183.9","216.95","841","60.0","43"
"09/04/12 11:28:20","226.3124","186.3","216.49","843","60.03","43"
"09/04/12 11:33:21","226.3269","185.1","216.25","843","60.0","43"
"09/04/12 11:38:20","226.3414","186.7","216.53","851","60.0","43"
"09/04/12 11:43:20","226.356","187.6","216.28","856","60.03","43"
"09/04/12 11:48:20","226.3707","189.0","216.92","862","60.03","44"
"09/04/12 11:53:20","226.3855","190.4","216.33","860","60.03","43"
"09/04/12 11:58:19","226.4003","190.5","217.19","855","60.03","44"
"09/04/12 12:03:20","226.4152","191.3","216.1","876","60.03","44"
"09/04/12 12:08:20","226.4301","191.5","216.76","875","60.03","44"
"09/04/12 12:13:19","226.445","192.2","217.08","870","60.0","44"
"09/04/12 12:18:21","226.4601","193.5","217.2","881","60.03","43"
"09/04/12 12:23:21","226.4752","193.2","217.11","872","60.0","44"
"09/04/12 12:28:21","226.4903","194.5","217.8","879","60.0","43"
"09/04/12 12:33:19","226.5054","194.7","217.41","880","60.0","43"
"09/04/12 12:38:20","226.5206","194.3","217.71","881","60.0","43"
"09/04/12 12:43:20","226.5358","194.6","215.99","888","60.0","43"
"09/04/12 12:48:21","226.5501","194.4","215.67","893","60.03","43"
"09/04/12 12:53:19","226.5625","126.6","214.65","599","60.03","42"
"09/04/12 12:58:20","226.5739","121.9","215.1","576","60.03","42"
"09/04/12 13:03:21","226.5871","194.4","216.38","885","60.03","42"
"09/04/12 13:08:21","226.6005","133.3","215.76","624","60.0","42"
"09/04/12 13:13:20","226.6151","194.7","216.63","888","60.0","42"
"09/04/12 13:18:20","226.6303","194.9","217.05","884","60.0","43"
"09/04/12 13:23:20","226.6454","191.9","216.46","879","60.03","42"
"09/04/12 13:28:19","226.6602","189.3","216.81","863","60.0","42"
"09/04/12 13:33:20","226.6749","187.4","216.76","851","60.0","42"
"09/04/12 13:38:20","226.6894","184.5","215.86","845","60.0","43"
"09/04/12 13:43:20","226.7037","182.5","215.78","836","60.0","43"
"09/04/12 13:48:21","226.718","181.1","215.75","832","60.0","43"
"09/04/12 13:53:21","226.732","179.3","217.03","818","60.03","43"
"09/04/12 13:58:20","226.746","179.9","217.02","812","60.03","43"
"09/04/12 14:03:20","226.76","178.0","217.52","814","60.0","43"
"09/04/12 14:08:20","226.7737","176.5","216.84","806","60.03","42"
"09/04/12 14:13:21","226.7875","174.4","217.14","798","60.0","42"
"09/04/12 14:18:21","226.801","173.5","217.4","786","60.03","42"
"09/04/12 14:23:21","226.8143","170.9","216.71","780","60.0","42"
"09/04/12 14:28:21","226.8276","169.4","216.16","774","60.03","42"
"09/04/12 14:33:21","226.8407","167.5","216.14","766","60.0","41"
"09/04/12 14:38:19","226.8535","164.9","216.19","761","60.03","41"
"09/04/12 14:43:21","226.8664","163.2","216.04","747","60.03","40"
"09/04/12 14:48:19","226.879","160.7","215.86","740","60.0","40"
"09/04/12 14:53:20","226.8914","157.8","216.24","728","60.0","40"
"09/04/12 14:58:21","226.9036","155.2","216.56","709","60.03","39"
"09/04/12 15:03:20","226.9156","152.4","215.47","703","60.03","39"
"09/04/12 15:08:21","226.9273","149.2","215.48","693","60.03","39"
"09/04/12 15:13:21","226.9389","147.6","215.88","685","60.0","38"
"09/04/12 15:18:19","226.9502","144.3","216.05","671","60.03","38"
"09/04/12 15:23:19","226.9613","140.6","215.25","658","60.0","38"
"09/04/12 15:28:20","226.9722","137.9","216.35","642","60.0","38"
"09/04/12 15:33:21","226.9829","133.9","214.64","631","60.03","37"
"09/04/12 15:38:21","226.9932","130.8","214.77","617","60.0","37"
"09/04/12 15:43:20","227.0033","128.1","215.35","604","60.0","37"
"09/04/12 15:48:20","227.0132","124.5","215.09","588","60.03","36"
"09/04/12 15:53:20","227.0228","121.3","214.85","576","60.03","36"
"09/04/12 15:58:20","227.0308","47.9","214.51","327","60.03","35"
"09/04/12 16:03:21","227.0398","118.0","216.27","553","60.0","35"
"09/04/12 16:08:19","227.0486","112.1","215.95","531","60.03","35"
"09/04/12 16:13:21","227.0551","107.2","215.14","509","60.0","34"
"09/04/12 16:18:21","227.0632","103.4","214.77","497","60.0","34"
"09/04/12 16:23:19","227.071","98.1","214.65","475","60.03","33"
"09/04/12 16:28:19","227.0784","93.3","214.43","453","60.0","33"
"09/04/12 16:33:21","227.0856","89.1","214.79","438","60.03","33"
"09/04/12 16:38:19","227.0922","84.8","214.9","414","60.03","32"
"09/04/12 16:43:21","227.0987","80.2","213.44","397","60.03","32"
"09/04/12 16:48:21","227.1048","76.2","214.33","378","60.03","32"
"09/04/12 16:53:21","227.1106","71.6","213.72","362","60.03","32"
"09/04/12 16:58:20","227.1159","67.6","215.56","343","60.03","31"
"09/04/12 17:03:20","227.1211","63.6","213.86","326","60.0","31"
"09/04/12 17:08:21","227.1255","41.2","213.73","392","60.03","31"